Weather Roundup
Issued by NWS

Home | Current Version | Previous Version | Graphics & Text | Print | Product List | Glossary Off
Versions: 1 2 3 4 5 6 7 8 9 10 11 12 13 14 15 16 17 18 19 20 21 22 23 24 25 26 27 28 29 30 31 32 33 34 35 36 37 38 39 40 41 42 43 44 45 46 47 48 49 50

000
NZUS93 KARX 261159
HRRWXR

CURRENT HOURLY OBSERVATIONS ACROSS
MUCH OF THE UPPER MISSISSIPPI VALLEY
NATIONAL WEATHER SERVICE LA CROSSE WI
700 AM CDT THU MAR 26 2015


...SOUTHEAST MINNESOTA...


CITY           SKY/WX    TMP DP  RH WIND       PRES   REMARKS
ROCHESTER      CLEAR     24  17  74 NW14      30.04R WCI  12
ROCHESTER/MAYO FAIR      27  22  79 W14G21    30.04S WCI  16
WINONA         CLOUDY    34  23  64 NW7       30.04S WCI  28
AUSTIN         CLEAR     27  19  74 NW10      30.06S WCI  17
ALBERT LEA     CLEAR     27  21  80 NW8       30.07S WCI  18
DODGE CENTER   CLEAR     27  19  74 NW9       30.04S WCI  17
PRESTON        CLOUDY    25  19  78 NW10      30.04R WCI  15
OWATONNA       CLEAR     25  18  74 W9        30.07R WCI  15
FARIBAULT      CLEAR     27  19  74 W10       30.08S WCI  17
$$

...ELSEWHERE IN MINNESOTA...


CITY           SKY/WX    TMP DP  RH WIND       PRES   REMARKS
MINNEAPOLIS    PTCLDY    27  20  75 NW12      30.08R WCI  17
INTNL FALLS    MOCLDY    15   5  64 NE10      30.15R WCI   2
DULUTH         FLURRIES  22  14  71 NW18      30.02R WCI   7
RED WING       CLOUDY    30  19  64 NW10G20   30.04S WCI  21
REDWOOD FALLS  CLEAR     29  22  75 NW9       30.14S WCI  20
MANKATO        CLEAR     27  19  74 NW16      30.09S WCI  14
WORTHINGTON    CLOUDY    27  21  80 W6        30.14S WCI  20
FAIRMONT       CLEAR     28  19  69 NW12      30.11R WCI  18
$$

...SOUTHWEST WISCONSIN...


CITY           SKY/WX    TMP DP  RH WIND       PRES   REMARKS
LA CROSSE      CLOUDY    34  22  61 NW14      30.01S WCI  25
PRAIRIE DU CHI CLEAR     29  20  70 W10       30.03R WCI  20
BOSCOBEL       CLEAR     30  21  69 W6        30.02R WCI  24
LONE ROCK      NOT AVBL
PLATTEVILLE    CLEAR     28  23  83 W6        29.99R WCI  21
FORT MC COY    CLOUDY    33  20  60 NW10      29.99S WCI  25
VIROQUA        CLOUDY    28  22  79 NW10      29.97S WCI  18
WIS DELLS      NOT AVBL
$$

...ELSEWHERE IN WISCONSIN...


CITY           SKY/WX    TMP DP  RH WIND       PRES   REMARKS
MILWAUKEE      CLOUDY    36  21  54 NW9       29.95R WCI  29
MADISON        MOCLDY    31  22  69 W5        29.96R WCI  26
GREEN BAY      CLOUDY    35  24  64 W13       29.90R WCI  26
EAU CLAIRE     CLOUDY    31  19  61 NW15      30.00R WCI  20
BLACK RVR FLS  CLOUDY    33  19  57 NW9       29.98S WCI  25
MEDFORD        CLOUDY    28  20  74 NW10      29.93R WCI  18
WAUSAU         CLOUDY    30  20  66 NW17G26   29.90R WCI  18
WIS RAPIDS     CLOUDY    32  19  58 NW12G20   29.95R WCI  23
MARSHFIELD     CLOUDY    32  21  64 NW14      29.93R WCI  22
RICE LAKE      CLOUDY    30  20  66 NW10G17   30.01S WCI  21
$$

...NORTHEAST IOWA...


CITY           SKY/WX    TMP DP  RH WIND       PRES   REMARKS
DECORAH        PTCLDY    27  19  74 NW6G13    30.02S WCI  20
MASON CITY     CLEAR     28  22  78 NW17      30.10R WCI  16
CHARLES CITY   CLEAR     28  23  80 NW15      30.07R WCI  17
OELWEIN        CLEAR     28  23  80 NW15      30.05R WCI  17
$$

...ELSEWHERE IN IOWA...


CITY           SKY/WX    TMP DP  RH WIND       PRES   REMARKS
DES MOINES     PTCLDY    30  22  72 NW10      30.15R WCI  21
IOWA CITY      CLEAR     29  24  82 NW9       30.09R WCI  20
FORT DODGE     CLEAR     27  19  74 W3        30.13S
$$

...NORTHERN ILLINOIS...


CITY           SKY/WX    TMP DP  RH WIND       PRES   REMARKS
CHICAGO-OHARE  CLOUDY    32  26  78 W7        29.96R WCI  26
CHICAGO-MIDWAY CLOUDY    35  27  72 W7        29.97R WCI  29
MOLINE         CLEAR     30  24  78 W7        30.05R WCI  23
ROCKFORD       PTCLDY    28  22  78 W7        30.01R WCI  21
PEORIA         CLOUDY    33  26  75 NW3       30.04R
$$

NOTE: "FAIR" INDICATES FEW OR NO CLOUDS BELOW 12,000 FEET WITH NO
SIGNIFICANT WEATHER AND/OR OBSTRUCTIONS TO VISIBILITY. WIND
SPEEDS ARE IN MILES-PER-HOUR.



USA.gov is the U.S. government's official web portal to all federal, state and local government web resources and services.